AirNav   Air Wisconsin Up To $57,000 Bonus
 
 1201 users online  

1K1 Lloyd Stearman Field Airport
Benton, Kansas, USA

GOING TO BENTON?


FAA INFORMATION EFFECTIVE 25 FEBRUARY 2021

Location

FAA Identifier: 1K1
Lat/Long: 37-46-28.0000N 097-06-47.6000W
37-46.466667N 097-06.793333W
37.7744444,-97.1132222
(estimated)
Elevation: 1364.1 ft. / 415.8 m (surveyed)
Variation: 04E (2010)
From city: 1 mile SW of BENTON, KS
Time zone: UTC -6 (UTC -5 during Daylight Saving Time)
Zip code: 67017

Airport Operations

Airport use: Open to the public
Activation date: 10/1947
Control tower: no
ARTCC: KANSAS CITY CENTER
FSS: WICHITA FLIGHT SERVICE STATION
NOTAMs facility: ICT (NOTAM-D service available)
Attendance: 0700-2300
Wind indicator: lighted
Segmented circle: no
Lights: ACTVT HIRL RY 17/35 AND PAPI RYS 17 & 35 - 123.075
Beacon: white-green (lighted land airport)
Operates sunset to sunrise.

Airport Communications

CTAF/UNICOM: 123.075
WX AWOS-3: 118.3 (316-530-6004)
WICHITA APPROACH: 134.8
WICHITA DEPARTURE: 134.8
CLEARANCE DELIVERY: 125.0
WX ASOS at AAO (5 nm W): 134.025 (316-636-2541)
WX AWOS-3PT at 3AU (6 nm S): 124.175 (316-733-6696)
WX AWOS-3PT at BEC (7 nm SW): 119.45 (316-515-7116)
WX AWOS-3P at EQA (14 nm E): 120.875 (316-322-8095)
WX ASOS at ICT (17 nm SW): PHONE 316-945-8022
WX AWOS-3PT at EWK (19 nm NW): 123.875 (316-283-8789)
  • FOR CLNC DLVY CTC ICT APCH ON FREQ 134.8 OR CALL 316-946-0064.

Nearby radio navigation aids

VOR radial/distance  VOR name  Freq  Var
ICTr079/22.4WICHITA VORTAC113.8007E

 
NDB name  Hdg/Dist  Freq  Var  ID
NEWTON150/19.028106EEWK . .-- -.-

Airport Services

Fuel available: 100LL JET-A
24 HR CREDIT CARD, FOR JET A CALL MGR 316-648-0132.
Parking: hangars and tiedowns
Airframe service: MAJOR
Powerplant service: MAJOR
Bottled oxygen: HIGH/LOW
Bulk oxygen: HIGH/LOW

Runway Information

Runway 17/35

Dimensions: 5106 x 75 ft. / 1556 x 23 m
Surface: asphalt, in good condition
Runway edge lights: high intensity
RUNWAY 17  RUNWAY 35
Latitude: 37-46.886218N37-46.047055N
Longitude: 097-06.831017W097-06.755882W
Elevation: 1364.1 ft.1349.1 ft.
Traffic pattern: rightleft
Runway heading: 172 magnetic, 176 true352 magnetic, 356 true
Displaced threshold: 242 ft.no
Markings: basic, in good conditionbasic, in good condition
Visual slope indicator: 2-light PAPI on left (3.00 degrees glide path)2-light PAPI on left (3.00 degrees glide path)
Touchdown point: yes, no lightsyes, no lights
Obstructions: 30 ft. trees, 980 ft. from runway, 186 ft. left of centerline, 26:1 slope to clear
15 FT ROAD 40 FT FM RY END.
35 ft. trees, 1400 ft. from runway, 35:1 slope to clear
18 FT ROAD 157 FT FM RY END.

Airport Ownership and Management from official FAA records

Ownership: Privately-owned
Owner: BENTON AIRPARK INC.
14789 SOUTHWEST 30TH. STREET
BENTON, KS 67017
Phone 316-778-1035
RESIDENTIAL AIRPARK OWNER LIVES ON ARPT.
Manager: DWAYNE CLEMENS
14789 SOUTHWEST 30TH. STREET
BENTON, KS 67017
Phone 316-648-0132

Airport Operational Statistics

Aircraft based on the field: 219
Single engine airplanes: 185
Multi engine airplanes: 20
Jet airplanes: 12
Helicopters: 2
    
Aircraft operations: avg 124/day *
48% local general aviation
41% military
10% transient general aviation
1% air taxi
* for 12-month period ending 02 July 2020

Additional Remarks

RY 17/35 HAS BEEN WIDENED FROM 60' TO 75'.
70' WIDE CONCRETE TWY TURN OFF ADDED MIDFIELD.
FOR CD CTC WICHITA APCH AT 316-350-1520.
TURF OPS WEST OF RY.
FOR ASSISTANCE AFT HRS CALL 316-648-0132 OR NRS POSTED AT FBO.
WARBIRD, ANTIQUE & HELICOPTER OPS ON & INVOF ARPT.
UNCONTROLLED VEH TFC INVOF HANGARS & ON TWYS. ACFT BACK TAXI ON RY WHEN ABLE.
ULTRALIGHT ACFT PPR.
TWIN AND LARGER ACFT BACK TAXI ON RY.

Instrument Procedures

NOTE: All procedures below are presented as PDF files. If you need a reader for these files, you should download the free Adobe Reader.

NOT FOR NAVIGATION. Please procure official charts for flight.
FAA instrument procedures published for use from 25 February 2021 at 0901Z to 25 March 2021 at 0900Z.

 
IAPs - Instrument Approach Procedures
RNAV (GPS) RWY 17   download (207KB)
NOTE: Special Take-Off Minimums/Departure Procedures apply   download (147KB)

Other nearby airports with instrument procedures:

KAAO - Colonel James Jabara Airport (5 nm W)
3AU - Augusta Municipal Airport (6 nm S)
KBEC - Beech Factory Airport (7 nm SW)
KCEA - Cessna Aircraft Field Airport (10 nm SW)
KIAB - Mc Connell Air Force Base (12 nm SW)
KEQA - El Dorado/Capt Jack Thomas Memorial Airport (14 nm E)
KICT - Wichita Dwight D Eisenhower NTL Airport (17 nm SW)
KEWK - Newton City/County Airport (19 nm NW)
 
Loc | Ops | Rwys | IFR | FBO | Links
Com | Nav | Svcs | Stats | Notes
Area around 1K1 (Lloyd Stearman Field Airport)
 
Road maps at: MapQuest Bing Google
 
Aerial photo
WARNING: Photo may not be current or correct
Aerial photo of 1K1 (Lloyd Stearman Field Airport)
Photo by Herb Pello
Photo taken 07-Nov-2012
looking south.

Do you have a better or more recent aerial photo of Lloyd Stearman Field Airport that you would like to share? If so, please send us your photo.

 
Sectional chart

 
Airport distance calculator
Flying to Lloyd Stearman Field Airport? Find the distance to fly.

From to 1K1

Sunrise and sunset
Times for 02-Mar-2021
 Local
(UTC-6)
 Zulu
(UTC)
Morning civil twilight06:3312:33
Sunrise07:0013:00
Sunset18:2200:22
Evening civil twilight18:4800:48

Current date and time
Zulu (UTC)  02-Mar-2021 14:20:33
Local (UTC-6)  02-Mar-2021 08:20:33
 
METAR
K1K1 021355Z AUTO 00000KT 10SM CLR M02/M06 A3023 RMK AO2 T10161061
KAAO 
5nm W 
021354Z AUTO 16004KT 10SM CLR 02/M04 A3022 RMK AO2 SLP243 T00171044
K3AU 
6nm S 
021355Z AUTO 13004KT 10SM CLR M01/M04 A3023 RMK AO2
KBEC 
7nm SW 
021355Z AUTO 00000KT 10SM CLR 01/M04 A3022 RMK AO2 T00091037
KIAB 
12nm SW 
021356Z AUTO 19004KT 10SM CLR 01/M04 A3022 RMK AO2 SLP244 T00061041
KEQA 
14nm E 
021355Z AUTO 16005KT 10SM CLR 01/M03 A3023 RMK AO2
KICT 
17nm SW 
021353Z 15003KT 10SM FEW250 M01/M04 A3022 RMK AO2 SLP240 T10111044
KEWK 
17nm NW 
021356Z AUTO 17005KT 10SM CLR 02/M06 A3022 RMK AO2 SLP240 T00171061 FZRANO
TAF
KIAB 
12nm SW 
021000Z 0210/0316 17006KT 9999 SKC QNH3022INS BECMG 0217/0218 20012G18KT 9999 SKC QNH3003INS BECMG 0223/0224 19009KT 9999 SKC QNH3002INS TX16/0221Z TNM02/0210Z
KICT 
17nm SW 
021134Z 0212/0312 VRB05KT P6SM SKC FM021700 20010KT P6SM SKC FM021900 20015G25KT P6SM SKC FM022300 19010KT P6SM SKC
NOTAMs
Click for the latest NOTAMs
NOTAMs are issued by the DoD/FAA and will open in a separate window not controlled by AirNav.

 

 
 

FBO, Fuel Providers, and Aircraft Ground Support

  
 Business Name 
 
 Contact 
 
 Services / Description 
 
Fuel Prices
 
Comments
  
Clemens Aviation 316-648-0132
316-778-1035
[web site]
[email]
Airport management, Aviation fuel, Aircraft ground handling, Oxygen service, Aircraft parking (ramp or tiedown), Hangars, Hangar leasing / sales, ...

More info about Clemens Aviation
Phillips 66
100LL Jet A
FS --- $4.50 
SS $4.25 --- 
 Updated 19-Feb-2021
  no comments
FS=Full service
SS=Self service
Update Fuel Prices
 

Aviation Businesses, Services, and Facilities

  
 Business Name 
 
 Contact 
 
 Services / Description 
 
Distance
 
Comments
  
 Regency Air
949-851-0966
[web site]
[email]
Aircraft charters
 
National Business Aviation Association  
 
More info about Regency Air
on airport  
   write
 

Would you like to see your business listed on this page?

 If your business provides an interesting product or service to pilots, flight crews, aircraft, or users of the Lloyd Stearman Field Airport, you should consider listing it here.  To start the listing process, click on the button below
 
Add a business
 

Other Pages about Lloyd Stearman Field Airport

Update a link
 
Copyright © AirNav, LLC. All rights reserved. Privacy Policy  Contact